Boonton, New Jersey, United States (07005)
Lat: 40.90N, Lon: 74.41W
Wx Zone: NJZ008
Local Info
Past Weather Observations for Tuesday, April 26, 2016

NOTE: This archive is for the closest National Weather Service station to Boonton. Information may differ from the station used for current weather conditions.

Click here for Long-term Archive

Time Weather Temperature Dewpoint Humidity Pressure Winds Precip Visibility
23:53
Overcast
46°F / 8°C 43°F / 6°C 87% 29.89 in
(1012 mb)
E 6.9 mph
(E 11 kph)
- 10SM
22:53
Overcast
46°F / 8°C 43°F / 6°C 87% 29.89 in
(1012 mb)
ENE 6.9 mph
(ENE 11 kph)
- 10SM
22:02
Overcast
48°F / 9°C 43°F / 6°C 82% 29.86 in
(1011 mb)
ENE 11.5 mph
(ENE 19 kph)
- 10SM
21:53
Overcast
48°F / 9°C 43°F / 6°C 82% 29.86 in
(1011 mb)
ENE 10.4 mph
(ENE 17 kph)
- 10SM
20:53
Overcast
Fog And Mist
48°F / 9°C 45°F / 7°C 87% 29.83 in
(1010 mb)
ENE 8.1 mph
(ENE 13 kph)
- 4SM
19:53
Overcast
50°F / 10°C 45°F / 7°C 82% 29.83 in
(1010 mb)
E 9.2 mph
(E 15 kph)
- 7SM
18:53
Overcast
52°F / 11°C 48°F / 9°C 88% 29.77 in
(1008 mb)
E 12.7 mph
(E 20 kph)
- 7SM
17:53
Overcast
Fog And Mist
55°F / 13°C 52°F / 11°C 88% 29.74 in
(1007 mb)
SSE 8.1 mph
(SSE 13 kph)
- 6SM
16:53
Overcast
57°F / 14°C 54°F / 12°C 88% 29.71 in
(1006 mb)
E 11.5 mph
(E 19 kph)
- 7SM
15:53
Overcast
Fog And Mist
57°F / 14°C 55°F / 13°C 94% 29.68 in
(1005 mb)
ENE 12.7 mph
(ENE 20 kph)
0.04 in
(1.02 mm)
3SM
15:46
Overcast
Fog And Mist
57°F / 14°C 55°F / 13°C 94% 29.68 in
(1005 mb)
ENE 11.5 mph
(ENE 19 kph)
0.04 in
(1.02 mm)
3SM
15:37
Overcast
Fog And Mist
59°F / 15°C 55°F / 13°C 88% 29.68 in
(1005 mb)
ENE 11.5 mph
(ENE 19 kph)
0.04 in
(1.02 mm)
4SM
15:23
Overcast
Light Rain
61°F / 16°C 57°F / 14°C 88% 29.68 in
(1005 mb)
ENE 3.5 mph
(ENE 6 kph)
0.04 in
(1.02 mm)
5SM
15:04
Overcast
Rain
61°F / 16°C 57°F / 14°C 88% 29.68 in
(1005 mb)
E 4.6 mph
(E 7 kph)
0.04 in
(1.02 mm)
2SM
14:53
Overcast
Heavy Rain
61°F / 16°C 55°F / 13°C 83% 29.68 in
(1005 mb)
Calm 0.16 in
(4.06 mm)
3/4SM
14:46
Overcast
Heavy Rain
63°F / 17°C 55°F / 13°C 77% 29.68 in
(1005 mb)
Variable 4.6 mph
(Variable 7 kph)
0.08 in
(2.03 mm)
1 3/4SM
13:53
Mostly Cloudy
64°F / 18°C 54°F / 12°C 68% 29.62 in
(1003 mb)
ENE 10.4 mph
(ENE 17 kph)
- 7SM
12:53
Partly Cloudy
Hazy
64°F / 18°C 55°F / 13°C 73% 29.65 in
(1004 mb)
E 8.1 mph
(E 13 kph)
- 6SM
11:53
Partly Cloudy
Hazy
61°F / 16°C 54°F / 12°C 77% 29.65 in
(1004 mb)
Calm - 4SM
10:53
Overcast
Hazy
55°F / 13°C 52°F / 11°C 88% 29.68 in
(1005 mb)
Calm 0.00 in
(0.00 mm)
3SM
09:53
Overcast
Fog And Mist
55°F / 13°C 52°F / 11°C 88% 29.71 in
(1006 mb)
NNE 4.6 mph
(NNE 7 kph)
- 3SM
08:53
Overcast
Fog And Mist
55°F / 13°C 52°F / 11°C 88% 29.71 in
(1006 mb)
Calm - 3SM
07:53
Overcast
Fog And Mist
54°F / 12°C 50°F / 10°C 88% 29.71 in
(1006 mb)
ESE 4.6 mph
(ESE 7 kph)
- 4SM
06:53
Overcast
Fog And Mist
54°F / 12°C 48°F / 9°C 82% 29.74 in
(1007 mb)
E 3.5 mph
(E 6 kph)
- 6SM
05:53
Overcast
Fog And Mist
52°F / 11°C 50°F / 10°C 94% 29.74 in
(1007 mb)
E 6.9 mph
(E 11 kph)
- 5SM
04:53
Overcast
Fog And Mist
52°F / 11°C 48°F / 9°C 88% 29.77 in
(1008 mb)
Calm 0.00 in
(0.00 mm)
6SM
03:53
Overcast
Light Rain
52°F / 11°C 48°F / 9°C 88% 29.77 in
(1008 mb)
Calm 0.15 in
(3.81 mm)
8SM
03:42
Overcast
52°F / 11°C 48°F / 9°C 88% 29.77 in
(1008 mb)
Calm 0.15 in
(3.81 mm)
10SM
03:25
Overcast
Rain
52°F / 11°C 48°F / 9°C 88% 29.74 in
(1007 mb)
ENE 11.5 mph
(ENE 19 kph)
0.15 in
(3.81 mm)
4SM
03:16
Overcast
Rain
52°F / 11°C 48°F / 9°C 88% 29.74 in
(1007 mb)
Variable 6.9 mph
(Variable 11 kph)
0.13 in
(3.30 mm)
2 1/2SM
02:53
Overcast
Light Rain
52°F / 11°C 46°F / 8°C 82% 29.77 in
(1008 mb)
E 15 mph
(E 24 kph)
0.18 in
(4.57 mm)
7SM
02:33
Overcast
Heavy Rain
50°F / 10°C 45°F / 7°C 82% 29.8 in
(1009 mb)
E 12.7 mph
(E 20 kph)
0.13 in
(3.30 mm)
2SM
01:53
Overcast
55°F / 13°C 45°F / 7°C 67% 29.8 in
(1009 mb)
Variable 4.6 mph
(Variable 7 kph)
- 10SM
00:53
Clear
55°F / 13°C 45°F / 7°C 67% 29.8 in
(1009 mb)
ENE 4.6 mph
(ENE 7 kph)
- 10SM
Time Weather Temperature Dewpoint Humidity Pressure Winds Precip Visibility


Weather for websites

WeatherForYou.com, LLC is not responsible for any damages or problems caused by this service. Current weather conditions are obtained from the closest station including government and personal stations which may have varying degrees of accuracy. Weather forecasts are derived from the NOAA NDFD. Like all things, this site belongs to Jesus Christ... He just trusts us to maintain it. If you have any questions or comments email webmaster@weatherforyou.com

Copyright © 2016, WeatherForYou.com LLC. All rights reserved.